Weather History for Kansas City International, MO

Change the Weather History Date:

Thursday, April 17, 2014

  Actual Average Record
Temperature  
Mean Temperature 44 °F 55 °F  
Max Temperature 51 °F 66 °F 87 °F (1954)
Min Temperature 37 °F 45 °F 28 °F (1953)
Degree Days  
Heating Degree Days 21 11  
Month to date heating degree days 258 220  
Since 1 July heating degree days 5589 4911  
Cooling Degree Days 0 1  
Month to date cooling degree days 6 11  
Year to date cooling degree days 6 14  
Moisture  
Dew Point 31 °F    
Average Humidity 64    
Maximum Humidity 76    
Minimum Humidity 52    
Precipitation  
Precipitation 0.00 in 0.12 in 1.93 in (1940)
Month to date precipitation 1.24 1.85  
Year to date precipitation 4.60 6.75  
Snow  
Snow 0.00 in 0.00 in T in (1999)
Month to date snowfall 0.1 0.5  
Since 1 July snowfall 26.1 18.7  
Snow Depth 0.00 in    
Sea Level Pressure  
Sea Level Pressure 30.25 in    
Wind  
Wind Speed 7 mph (North)    
Max Wind Speed 16 mph    
Max Gust Speed 20 mph    
Visibility 10 miles    
Events      
T = Trace of Precipitation, MM = Missing Value Source: NWS Daily Summary

Daily Weather History Graph

Daily Weather History Graph

Search for Another Location

Airport:

Trip Planner

Search our weather history database for the weather conditions in past years. The results will help you decide how hot, cold, wet, or windy it might be!

Date:

Astronomy

Apr. 17, 2014 Rise Set
Actual Time 6:39 AM CDT 7:58 PM CDT
Civil Twilight 6:11 AM CDT 8:26 PM CDT
Nautical Twilight 5:37 AM CDT 8:59 PM CDT
Astronomical Twilight 5:02 AM CDT 9:35 PM CDT
Moon 10:44 PM CDT (4/17) 8:12 AM CDT (4/17)
Length of Visible Light 14h 15m
Length of Day
13h 19m
Waning Gibbous, 93% of the Moon is Illuminated
Apr 17
Waning Gibbous
Apr 22
Last Quarter
Apr 29
New
May 6
First Quarter
May 14
Full

Hourly Weather History & Observations

Time (CDT) Temp. Windchill Dew Point Humidity Pressure Visibility Wind Dir Wind Speed Gust Speed Precip Events Conditions
12:53 AM 41.0 °F 33.5 °F 30.9 °F 67% 30.09 in 10.0 mi NW 13.8 mph - N/A   Mostly Cloudy
1:53 AM 39.9 °F 35.8 °F 30.9 °F 70% 30.12 in 10.0 mi NNW 5.8 mph - N/A   Overcast
2:53 AM 39.0 °F 33.4 °F 30.9 °F 73% 30.12 in 10.0 mi NW 8.1 mph - N/A   Overcast
3:53 AM 39.0 °F 33.4 °F 30.9 °F 73% 30.15 in 10.0 mi NW 8.1 mph - N/A   Mostly Cloudy
4:53 AM 39.0 °F 32.3 °F 30.0 °F 70% 30.17 in 10.0 mi NW 10.4 mph 18.4 mph N/A   Scattered Clouds
5:53 AM 37.9 °F 30.9 °F 30.0 °F 73% 30.19 in 10.0 mi NNW 10.4 mph - N/A   Overcast
6:53 AM 37.9 °F 31.5 °F 30.0 °F 73% 30.22 in 10.0 mi North 9.2 mph - N/A   Overcast
7:53 AM 37.0 °F 29.8 °F 28.9 °F 73% 30.26 in 9.0 mi NNW 10.4 mph - N/A   Overcast
8:53 AM 37.9 °F 29.2 °F 28.9 °F 70% 30.27 in 8.0 mi North 15.0 mph - N/A   Overcast
9:53 AM 37.9 °F 30.0 °F 28.9 °F 70% 30.29 in 9.0 mi North 12.7 mph - N/A   Overcast
10:53 AM 39.2 °F 33.6 °F 30.2 °F 70% 30.30 in 10.0 mi North 8.1 mph - N/A   Overcast
11:53 AM 42.8 °F 38.6 °F 30.2 °F 61% 30.32 in 10.0 mi Variable 6.9 mph - N/A   Overcast
12:31 PM 43.0 °F 37.7 °F 30.9 °F 62% 30.31 in 10.0 mi NNE 9.2 mph - N/A   Overcast
12:53 PM 44.1 °F 41.5 °F 30.9 °F 60% 30.31 in 10.0 mi Variable 4.6 mph - N/A   Overcast
1:53 PM 45.0 °F 41.8 °F 30.9 °F 58% 30.31 in 10.0 mi NNE 5.8 mph - N/A   Overcast
2:53 PM 46.9 °F - 30.9 °F 54% 30.30 in 10.0 mi Variable 4.6 mph - N/A   Overcast
3:53 PM 46.9 °F - 30.9 °F 54% 30.29 in 10.0 mi ESE 3.5 mph - N/A   Mostly Cloudy
4:53 PM 50.0 °F - 33.1 °F 52% 30.28 in 10.0 mi NNW 3.5 mph - N/A   Mostly Cloudy
5:53 PM 48.9 °F - 32.0 °F 52% 30.29 in 10.0 mi Calm Calm - N/A   Mostly Cloudy
6:53 PM 48.9 °F - 32.0 °F 52% 30.28 in 10.0 mi SE 4.6 mph - N/A   Partly Cloudy
7:53 PM 46.9 °F - 32.0 °F 56% 30.28 in 10.0 mi ESE 3.5 mph - N/A   Partly Cloudy
8:53 PM 43.0 °F 39.5 °F 32.0 °F 65% 30.29 in 10.0 mi SE 5.8 mph - N/A   Clear
9:53 PM 43.0 °F 39.5 °F 30.9 °F 62% 30.30 in 10.0 mi SSE 5.8 mph - N/A   Clear
10:53 PM 39.9 °F 36.7 °F 30.9 °F 70% 30.29 in 10.0 mi SSE 4.6 mph - N/A   Clear
11:53 PM 39.9 °F 36.7 °F 32.0 °F 73% 30.29 in 9.0 mi SSW 4.6 mph - N/A   Clear